Weather observations for the past three days for
Houston Intercontinental Airport
Imperial (Metric)
Date Time (cdt) Wind (mph) Vis. (mi.) Weather Sky Cond. Temperature (ºF) Relative Humidity Wind Chill (°F) Heat Index (°F) Pressure Precipitation (in)
Air Dwpt 6 hour altimeter (in) sea level (mb) 1 hr 3 hr 6 hr
Max. Min.
23 20:53 SE 14 10.00 A Few Clouds FEW050 FEW250 84.9 73 68% 92 29.9 1012.3
23 19:53 SE 13 10.00 A Few Clouds FEW050 FEW250 88 73 61% 96 29.9 1012.2
23 18:53 SE 12 10.00 Partly Cloudy SCT050 SCT250 90 73 93 88 58% 98 29.89 1012.0
23 17:53 SE 14 10.00 Partly Cloudy SCT050 SCT250 91 73.9 57% 101 29.89 1012.2
23 16:53 SE 12 10.00 Mostly Cloudy BKN043 91.9 75 58% 103 29.91 1012.6
23 15:53 E 9 10.00 Mostly Cloudy BKN045 91.9 75 58% 103 29.92 1013.0
23 14:53 SE 8 10.00 Mostly Cloudy BKN040 91.9 75 58% 103 29.94 1013.6
23 13:53 SE 6 10.00 Partly Cloudy SCT040 91 73 56% 100 29.95 1014.1
23 12:53 E 6 10.00 Mostly Cloudy BKN035 88 73.9 90 77 63% 97 29.97 1014.7
23 11:53 E 8 10.00 Partly Cloudy SCT030 89.1 75.9 65% 100 29.98 1015.2
23 10:53 SE 5 10.00 Mostly Cloudy BKN023 87.1 75.9 70% 98 29.99 1015.3
23 09:53 E 7 10.00 Mostly Cloudy BKN017 82.9 75.9 79% 91 29.99 1015.6
23 08:53 NE 6 10.00 A Few Clouds FEW020 82 75.9 82% 89 30 1015.6
23 07:53 N 7 10.00 Mostly Cloudy BKN018 79 75 88% 83 29.99 1015.4
23 06:53 Vrbl 5 10.00 Partly Cloudy FEW020 SCT060 SCT250 77 73.9 77 73.9 90% 78 29.97 1014.8
23 05:53 N 3 10.00 A Few Clouds FEW010 75 73 94% 73 29.96 1014.5
23 04:53 Calm 10.00 Fair CLR 75 73 94% 73 29.96 1014.3
23 03:53 Calm 10.00 Fair CLR 75 72 90% 74 29.96 1014.2
23 02:53 Calm 10.00 Fair CLR 75 73 94% 73 29.97 1014.6
23 01:53 Calm 10.00 Fair CLR 75 73 94% 73 29.98 1015.1
23 00:53 Calm 10.00 Fair CLR 77 73 89.1 77 88% 78 30 1015.6
22 23:53 Calm 10.00 A Few Clouds FEW050 78.1 73 85% 81 30.01 1016.0
22 22:53 S 3 10.00 A Few Clouds FEW050 81 73 77% 86 30 1015.9
22 21:53 S 7 10.00 A Few Clouds FEW050 82 73 74% 87 29.99 1015.3
22 20:53 SE 12 10.00 Partly Cloudy SCT050 82.9 73 72% 89 29.97 1014.7
22 19:53 SE 12 10.00 A Few Clouds FEW050 86 72 63% 92 29.96 1014.3
22 18:53 SE 12 10.00 A Few Clouds FEW050 89.1 72 91.9 89.1 57% 96 29.95 1014.2
22 17:53 SE 12 10.00 A Few Clouds FEW055 91 72 54% 99 29.96 1014.2
22 16:53 S 6 10.00 Partly Cloudy SCT055 91 72 54% 99 29.97 1014.6
22 15:53 SE 9 10.00 Partly Cloudy SCT050 91.9 72 52% 100 29.98 1015.0
22 14:53 E 9 10.00 Partly Cloudy SCT050 91 72 54% 99 30 1015.7
22 13:53 E 9 10.00 Partly Cloudy SCT050 90 71.1 54% 96 30.02 1016.4
22 12:53 E 9 10.00 Partly Cloudy SCT045 91 71.1 91.9 78.1 52% 98 30.03 1016.9
22 11:53 E 6 G 16 10.00 A Few Clouds FEW035 90 73 58% 98 30.04 1017.2
22 10:53 E 10 10.00 A Few Clouds FEW035 88 71.1 57% 94 30.05 1017.6
22 09:53 E 3 10.00 A Few Clouds FEW020 86 75 70% 95 30.06 1017.7
22 08:53 SE 5 10.00 A Few Clouds FEW015 82.9 77 82% 92 30.07 1018.0
22 07:53 Vrbl 3 10.00 A Few Clouds FEW012 FEW130 80.1 77 90% 86 30.07 1018.1
22 06:53 N 5 10.00 Partly Cloudy FEW030 SCT130 78.1 75.9 78.1 75.9 93% 81 30.07 1018.1
22 05:53 Calm 10.00 Partly Cloudy FEW080 SCT140 75.9 75 97% 75 30.06 1017.9
22 04:53 Calm 10.00 A Few Clouds FEW140 75.9 75 97% 75 30.06 1017.8
22 03:53 N 3 10.00 A Few Clouds FEW014 FEW140 77 75 94% 78 30.05 1017.4
22 02:53 Calm 10.00 A Few Clouds FEW140 77 75.9 96% 78 30.06 1017.7
22 01:53 E 3 10.00 Fair CLR 78.1 75.9 93% 81 30.07 1018.0
22 00:53 Calm 10.00 Fair CLR 78.1 75.9 86 78.1 93% 81 30.07 1018.0
21 23:53 SE 3 10.00 A Few Clouds FEW035 FEW140 80.1 75.9 87% 85 30.07 1018.2
21 22:53 SE 7 10.00 A Few Clouds FEW040 FEW140 80.1 75 85% 85 30.08 1018.3
21 21:53 SE 7 10.00 A Few Clouds FEW140 81 75 82% 87 30.06 1017.8
21 20:53 SE 9 10.00 A Few Clouds FEW040 FEW130 82 75.9 82% 89 30.05 1017.3
21 19:53 SE 10 10.00 A Few Clouds FEW040 FEW130 84.9 75.9 75% 94 30.03 1016.8
21 18:53 SE 7 10.00 Partly Cloudy FEW040 SCT130 84 77 91 81 80% 94 30.04 1016.9 0.15
21 17:53 SE 10 10.00 Mostly Cloudy FEW040TCU BKN130 86 75.9 72% 96 30.04 1016.9
21 16:53 Calm 10.00 Mostly Cloudy SCT040TCU BKN130 84.9 77 77% 95 30.05 1017.4 0.15
21 15:53 E 9 10.00 Mostly Cloudy BKN040TCU BKN130 89.1 77 68% 102 30.06 1017.8
21 14:53 E 14 G 21 10.00 Mostly Cloudy BKN040TCU 86 75 70% 95 30.08 1018.4
21 13:53 E 13 10.00 Mostly Cloudy BKN036 90 73.9 59% 99 30.09 1018.7
21 12:53 E 12 G 17 10.00 Partly Cloudy SCT033 89.1 73.9 90 77 61% 98 30.11 1019.5
21 11:53 NE 8 10.00 Mostly Cloudy BKN030 87.1 75 67% 97 30.13 1020.1
21 10:53 NE 9 10.00 Partly Cloudy SCT025 86 75 70% 95 30.12 1019.9
21 09:53 E 12 10.00 A Few Clouds FEW020 FEW250 84 75 74% 92 30.12 1019.8
21 08:53 E 10 10.00 A Few Clouds FEW015 FEW250 82 75 79% 89 30.11 1019.5
21 07:53 NE 8 10.00 Partly Cloudy FEW012 SCT250 79 73.9 85% 83 30.1 1019.2
21 06:53 NE 6 10.00 Partly Cloudy FEW020 SCT250 77 73.9 78.1 75.9 90% 78 30.09 1018.9
21 05:53 NE 6 10.00 A Few Clouds FEW024 FEW250 77 73.9 90% 78 30.09 1018.6
21 04:53 NE 7 10.00 A Few Clouds FEW022 FEW250 75.9 73.9 94% 75 30.08 1018.4
21 03:53 NE 7 10.00 A Few Clouds FEW020 77 75 94% 78 30.08 1018.4
21 02:53 NE 7 10.00 A Few Clouds FEW020 78.1 75 90% 81 30.08 1018.6
21 01:53 NE 7 10.00 A Few Clouds FEW020 78.1 75 90% 81 30.1 1019.1
21 00:53 NE 8 10.00 A Few Clouds FEW020 78.1 75 87.1 78.1 90% 81 30.11 1019.5
20 23:53 NE 7 10.00 A Few Clouds FEW025 78.1 75 90% 81 30.11 1019.5
20 22:53 E 8 10.00 A Few Clouds FEW025 FEW075 78.1 75 90% 81 30.1 1019.0
20 21:53 NE 9 10.00 A Few Clouds FEW025 FEW080 80.1 73.9 82% 85 30.08 1018.6
Date Time (cdt) Wind (mph) Vis. (mi.) Weather Sky Cond. Air Dwpt Max. Min. Relative Humidity Wind Chill (°F) Heat Index (°F) altimeter (in) sea level (mb) 1 hr 3 hr 6 hr
6 hour
Temperature (ºF) Pressure Precipitation (in)